Fairweather Grounds 92NM Southeast of Yakutat, AK (46083)

Conditions for Monday

Daily
Weekly
Monthly
Marine Data Graph

Marine & Boating Location Search

Enter a coastal zip code for marine weather.

General Information

Location: 58.237 North -137.986 West
Buoy Type: 6-meter NOMAD buoy
Buoy Hull: 6N31
Payload: ARES 4.4 payload
Owned by: NDBC
Windspeed: Measured by obtained from anemometer
Sea Surface: Measured by Intake
Note:

Weather and Wave Data

Time Temp Humidity Wind Dominant Wave Wind Wave Wave Swell Pressure
  Air
(°F)
Water
(°F)
  Dir Speed
(kts)
Speed
(mph)
Period
(sec)
Height
(ft)
Range
(ft)
Period
(sec)
Height
(ft)
Range
(ft)
Period
(sec)
Height
(ft)
Range
(ft)
Atmo.
(in)
Tend.
(in)
20:50 36 42 100 ESE 31.1 35.8 10 14.11 exactly 14.1 8 11.48 10.66 - 12.30 10 9.84 9.02 - 10.66 29.48 -0.04
21:50 36 43 100 SE 29.2 33.6 10 15.42 exactly 15.4 6 11.48 10.66 - 12.30 10 9.84 9.02 - 10.66 29.50 -
22:50 36 43 100 SE 27.2 31.3 10 12.80 exactly 12.8 6 9.84 9.02 - 10.66 10 8.20 7.38 - 9.02 29.51 +0.02
23:50 38 43 100 South 9.7 11.2 9 12.80 exactly 12.8 4 3.28 2.46 - 4.10 9 11.48 10.66 - 12.30 29.55 +0.06
00:50 40 43 100 SSW 11.7 13.4 9 12.47 exactly 12.5 5 4.92 4.10 - 5.74 9 11.48 10.66 - 12.30 29.56 +0.06
01:50 40 43 100 SSW 11.7 13.4 9 10.50 exactly 10.5 5 4.92 4.10 - 5.74 9 9.84 9.02 - 10.66 29.57 +0.06
02:50 40 43 100 South 7.8 8.9 9 10.50 exactly 10.5 3 1.64 0.82 - 2.46 9 9.84 9.02 - 10.66 29.58 +0.03
03:50 40 43 100 South 9.7 11.2 9 9.19 exactly 9.2 4 3.28 2.46 - 4.10 9 8.20 7.38 - 9.02 29.58 +0.02
04:50 39 43 100 ESE 17.5 20.1 9 8.86 exactly 8.9 7 4.92 4.10 - 5.74 9 6.56 5.74 - 7.38 29.59 +0.02
05:50 40 43 100 SSE 11.7 13.4 9 8.86 exactly 8.9 5 4.92 4.10 - 5.74 9 8.20 7.38 - 9.02 29.60 +0.03
06:50 40 43 100 SE 11.7 13.4 10 8.86 exactly 8.9 5 4.92 4.10 - 5.74 10 8.20 7.38 - 9.02 29.62 +0.04
07:50 39 43 98 ESE 17.5 20.1 10 9.19 exactly 9.2 5 4.92 4.10 - 5.74 10 8.20 7.38 - 9.02 29.62 +0.03
08:50 39 43 99 SE 19.4 22.4 8 9.19 exactly 9.2 4 4.92 4.10 - 5.74 8 8.20 7.38 - 9.02 29.63 +0.02
09:50 39 43 100 SE 19.4 22.4 10 9.51 exactly 9.5 5 4.92 4.10 - 5.74 10 8.20 7.38 - 9.02 29.65 +0.04
10:50 40 43 98 SE 17.5 20.1 10 9.19 exactly 9.2 4 4.92 4.10 - 5.74 10 8.20 7.38 - 9.02 29.67 +0.04
11:50 39 43 100 SE 17.5 20.1 11 8.86 exactly 8.9 7 4.92 4.10 - 5.74 11 6.56 5.74 - 7.38 29.68 +0.06
12:50 40 43 98 SE 19.4 22.4 10 8.53 exactly 8.5 6 4.92 4.10 - 5.74 10 6.56 5.74 - 7.38 29.69 +0.04
13:50 39 43 100 SE 17.5 20.1 12 8.86 exactly 8.9 4 4.92 4.10 - 5.74 12 6.56 5.74 - 7.38 29.69 +0.03
14:50 39 43 100 SE 17.5 20.1 10 8.20 exactly 8.2 7 4.92 4.10 - 5.74 10 6.56 5.74 - 7.38 29.69 +0.01
16:50 40 43 100 SSE 13.6 15.7 11 8.53 exactly 8.5 5 4.92 4.10 - 5.74 11 6.56 5.74 - 7.38 29.71 +0.01
17:50 40 43 100 SSE 17.5 20.1 12 9.84 exactly 9.8 4 4.92 4.10 - 5.74 12 8.20 7.38 - 9.02 29.70 +0.01
18:50 41 43 100 South 13.6 15.7 11 9.19 exactly 9.2 4 3.28 2.46 - 4.10 11 8.20 7.38 - 9.02 29.71 +0.02
19:50 41 43 100 South 13.6 15.7 12 10.83 exactly 10.8 4 3.28 2.46 - 4.10 12 9.84 9.02 - 10.66 29.73 +0.02
20:50 41 43 99 SSW 11.7 13.4 13 11.48 exactly 11.5 5 3.28 2.46 - 4.10 13 11.48 10.66 - 12.30 29.74 +0.03
21:50 41 43 98 South 11.7 13.4 11 11.81 exactly 11.8 5 3.28 2.46 - 4.10 11 11.48 10.66 - 12.30 29.75 +0.04
22:50 40 43 100 SSW 7.8 8.9 12 11.48 exactly 11.5 3 1.64 0.82 - 2.46 12 11.48 10.66 - 12.30 29.77 +0.04
23:50 40 43 100 SSW 5.8 6.7 12 9.51 exactly 9.5 4 1.64 0.82 - 2.46 12 9.84 9.02 - 10.66 29.77 +0.04
00:50 40 43 100 SSW 5.8 6.7 12 10.83 exactly 10.8 4 1.64 0.82 - 2.46 12 9.84 9.02 - 10.66 29.77 +0.02
01:50 39 43 100 SSW 5.8 6.7 13 11.15 exactly 11.2 4 1.64 0.82 - 2.46 13 11.48 10.66 - 12.30 29.78 +0.02
02:50 39 43 100 SSW 7.8 8.9 11 9.51 exactly 9.5 4 1.64 0.82 - 2.46 11 9.84 9.02 - 10.66 29.78 -
03:50 40 43 98 SSW 7.8 8.9 10 10.17 exactly 10.2 4 1.64 0.82 - 2.46 10 9.84 9.02 - 10.66 29.76 -0.01

Detailed Wave Spectra

Time Water Depth Wave Height Spectral Peak Period Average Wave Period Sampling Interval Wave Record
20:00 463 ft 12.93 ft 9.1 sec 6.0 sec 0.6 sec 2400 sec
21:00 463 ft 14.24 ft 10.0 sec 6.6 sec 0.6 sec 2400 sec
22:00 463 ft 15.49 ft 10.0 sec 6.8 sec 0.6 sec 2400 sec
23:00 463 ft 12.66 ft 10.0 sec 6.5 sec 0.6 sec 2400 sec
00:00 463 ft 12.73 ft 9.1 sec 6.6 sec 0.6 sec 2400 sec
01:00 463 ft 12.40 ft 9.1 sec 7.1 sec 0.6 sec 2400 sec
02:00 463 ft 10.43 ft 9.1 sec 6.9 sec 0.6 sec 2400 sec
03:00 463 ft 10.40 ft 9.1 sec 6.8 sec 0.6 sec 2400 sec
04:00 463 ft 9.02 ft 9.1 sec 6.4 sec 0.6 sec 2400 sec
05:00 463 ft 8.99 ft 9.1 sec 6.3 sec 0.6 sec 2400 sec
06:00 463 ft 8.89 ft 9.1 sec 6.3 sec 0.6 sec 2400 sec
07:00 463 ft 9.02 ft 10.0 sec 6.3 sec 0.6 sec 2400 sec
08:00 463 ft 9.22 ft 10.0 sec 6.7 sec 0.6 sec 2400 sec
09:00 463 ft 9.25 ft 8.3 sec 6.4 sec 0.6 sec 2400 sec
10:00 463 ft 9.48 ft 10.0 sec 6.5 sec 0.6 sec 2400 sec
11:00 463 ft 9.25 ft 10.0 sec 6.4 sec 0.6 sec 2400 sec
12:00 463 ft 8.73 ft 11.4 sec 6.2 sec 0.6 sec 2400 sec
13:00 463 ft 8.69 ft 10.0 sec 6.3 sec 0.6 sec 2400 sec
15:00 463 ft 8.14 ft 10.0 sec 6.2 sec 0.6 sec 2400 sec
16:00 463 ft 9.58 ft 12.9 sec 6.9 sec 0.6 sec 2400 sec
17:00 463 ft 8.43 ft 11.4 sec 6.3 sec 0.6 sec 2400 sec
18:00 463 ft 10.01 ft 12.1 sec 7.5 sec 0.6 sec 2400 sec
19:00 463 ft 9.19 ft 10.8 sec 7.1 sec 0.6 sec 2400 sec
20:00 463 ft 10.93 ft 12.1 sec 7.9 sec 0.6 sec 2400 sec
22:00 463 ft 11.88 ft 11.4 sec 8.5 sec 0.6 sec 2400 sec
23:00 463 ft 11.61 ft 12.1 sec 8.5 sec 0.6 sec 2400 sec
00:00 463 ft 9.61 ft 12.1 sec 7.8 sec 0.6 sec 2400 sec
01:00 463 ft 10.70 ft 12.1 sec 8.1 sec 0.6 sec 2400 sec
02:00 463 ft 11.09 ft 12.9 sec 8.3 sec 0.6 sec 2400 sec
03:00 463 ft 9.45 ft 11.4 sec 7.7 sec 0.6 sec 2400 sec